Back to catalog

DELTA 1 DEB

AliveUNKNOWN
NORAD 7015·DEBRIS·🇺🇸 United States

Launched Nov 6, 1973 from Vandenberg Space Force Base

Loading…

Next Passes (next 24 hours)

TLE

FreshSource: Space-Track

Epoch: Sep 14, 2026, 15:41 UTC

1 07015U 73086F   26257.65348853  .00000005  00000-0  62673-3 0  9993
2 07015 101.7858  33.7798 0401357 225.9665 144.1105 11.66273646250248

Track DELTA 1 DEB in real time with AllMySat

Download on the App Store